Total_Precipitation_Accumulation
0.27 0.26 0.35 0.55 0.65 0.63 0.62 0.69 0.92 0.91 0.82 0.78 0.74 0.75 0.77 0.81 0.79 0.71 0.65 0.67 0.71 0.77 0.78 0.75 0.71 0.77 0.81 0.87 0.97 1.13 1.27 1.25 1.12 0.96 0.85 0.80 0.76 0.68 0.65 0.65 0.65 0.73 0.79 0.78
0.16 0.15 0.23 0.39 0.49 0.51 0.48 0.48 0.57 0.63 0.62 0.53 0.50 0.54 0.56 0.58 0.54 0.49 0.45 0.43 0.42 0.44 0.44 0.43 0.39 0.39 0.41 0.49 0.64 0.88 1.14 1.12 0.92 0.76 0.64 0.59 0.62 0.63 0.62 0.59 0.63 0.68 0.66 0.68
0.19 0.14 0.20 0.42 0.43 0.41 0.42 0.35 0.36 0.41 0.40 0.36 0.39 0.46 0.47 0.52 0.54 0.41 0.33 0.31 0.31 0.31 0.30 0.30 0.30 0.29 0.32 0.39 0.50 0.67 0.79 0.77 0.68 0.57 0.54 0.58 0.61 0.56 0.57 0.59 0.59 0.61 0.60 0.59
0.22 0.23 0.49 0.70 0.58 0.49 0.46 0.27 0.21 0.21 0.23 0.27 0.37 0.41 0.43 0.42 0.42 0.41 0.30 0.23 0.22 0.22 0.22 0.26 0.27 0.31 0.35 0.40 0.44 0.48 0.51 0.53 0.49 0.47 0.48 0.52 0.53 0.53 0.61 0.67 0.65 0.65 0.66 0.64
0.34 0.40 0.58 0.64 0.55 0.54 0.54 0.38 0.18 0.16 0.16 0.16 0.16 0.18 0.22 0.23 0.22 0.22 0.18 0.15 0.14 0.13 0.13 0.16 0.16 0.17 0.18 0.21 0.23 0.24 0.23 0.24 0.25 0.25 0.28 0.30 0.31 0.38 0.50 0.57 0.61 0.66 0.71 0.70
0.38 0.46 0.58 0.45 0.28 0.29 0.43 0.54 0.17 0.10 0.10 0.08 0.07 0.11 0.13 0.15 0.16 0.14 0.11 0.12 0.11 0.10 0.11 0.13 0.13 0.12 0.11 0.12 0.12 0.13 0.13 0.14 0.16 0.18 0.17 0.17 0.21 0.26 0.32 0.33 0.40 0.51 0.53 0.56
0.35 0.53 0.72 0.51 0.30 0.28 0.49 0.53 0.15 0.07 0.06 0.05 0.07 0.07 0.08 0.11 0.13 0.12 0.11 0.12 0.12 0.11 0.11 0.12 0.14 0.13 0.12 0.12 0.12 0.13 0.16 0.19 0.20 0.19 0.20 0.21 0.23 0.25 0.27 0.28 0.32 0.36 0.40 0.44
0.43 0.72 0.91 0.69 0.47 0.43 0.35 0.16 0.09 0.05 0.04 0.04 0.04 0.05 0.06 0.09 0.11 0.11 0.10 0.11 0.12 0.11 0.12 0.13 0.13 0.13 0.13 0.14 0.14 0.14 0.17 0.18 0.21 0.22 0.23 0.23 0.24 0.27 0.29 0.30 0.29 0.31 0.32 0.36
0.38 0.59 0.61 0.54 0.42 0.31 0.23 0.12 0.05 0.04 0.03 0.04 0.05 0.05 0.06 0.09 0.08 0.08 0.09 0.09 0.10 0.12 0.12 0.13 0.14 0.13 0.13 0.15 0.16 0.16 0.17 0.18 0.20 0.22 0.22 0.20 0.22 0.26 0.28 0.30 0.31 0.33 0.35 0.40
0.16 0.21 0.23 0.24 0.23 0.16 0.13 0.09 0.04 0.04 0.04 0.05 0.06 0.05 0.05 0.08 0.09 0.08 0.09 0.09 0.10 0.12 0.13 0.15 0.15 0.15 0.17 0.17 0.16 0.16 0.18 0.19 0.20 0.21 0.21 0.20 0.21 0.23 0.25 0.28 0.31 0.35 0.40 0.44
0.16 0.12 0.10 0.12 0.14 0.12 0.09 0.06 0.05 0.04 0.05 0.05 0.06 0.08 0.07 0.08 0.11 0.11 0.10 0.12 0.14 0.15 0.15 0.15 0.17 0.18 0.21 0.21 0.18 0.17 0.17 0.18 0.18 0.18 0.19 0.20 0.20 0.21 0.22 0.24 0.30 0.39 0.44 0.48
0.17 0.12 0.12 0.12 0.12 0.10 0.08 0.06 0.05 0.05 0.05 0.06 0.06 0.08 0.08 0.09 0.10 0.12 0.13 0.13 0.15 0.17 0.17 0.16 0.17 0.19 0.21 0.23 0.25 0.24 0.21 0.18 0.17 0.17 0.18 0.18 0.19 0.20 0.22 0.23 0.29 0.33 0.34 0.35
0.12 0.11 0.11 0.11 0.11 0.09 0.08 0.07 0.06 0.06 0.06 0.07 0.08 0.08 0.10 0.10 0.09 0.12 0.14 0.13 0.14 0.14 0.15 0.14 0.14 0.13 0.14 0.16 0.17 0.18 0.20 0.20 0.18 0.17 0.18 0.19 0.20 0.21 0.23 0.22 0.20 0.21 0.24 0.27
0.09 0.11 0.12 0.10 0.10 0.08 0.07 0.07 0.07 0.06 0.06 0.07 0.08 0.10 0.10 0.11 0.09 0.10 0.11 0.11 0.13 0.14 0.13 0.13 0.12 0.11 0.11 0.11 0.12 0.14 0.16 0.18 0.19 0.21 0.22 0.23 0.26 0.28 0.32 0.35 0.33 0.26 0.23 0.24
0.09 0.10 0.10 0.10 0.10 0.10 0.09 0.09 0.09 0.09 0.10 0.11 0.11 0.11 0.11 0.11 0.10 0.09 0.10 0.11 0.13 0.14 0.14 0.15 0.13 0.11 0.11 0.10 0.10 0.11 0.13 0.16 0.19 0.25 0.30 0.29 0.31 0.37 0.38 0.33 0.30 0.30 0.29 0.27
0.12 0.11 0.11 0.12 0.12 0.11 0.09 0.09 0.10 0.10 0.11 0.11 0.13 0.14 0.13 0.11 0.11 0.10 0.11 0.12 0.13 0.14 0.15 0.16 0.16 0.15 0.13 0.11 0.10 0.10 0.11 0.16 0.19 0.24 0.28 0.29 0.31 0.35 0.36 0.35 0.34 0.36 0.37 0.38
0.14 0.14 0.14 0.16 0.16 0.13 0.10 0.10 0.11 0.12 0.13 0.14 0.16 0.15 0.16 0.15 0.15 0.14 0.12 0.12 0.13 0.14 0.15 0.16 0.17 0.16 0.15 0.13 0.12 0.12 0.13 0.16 0.19 0.21 0.23 0.24 0.27 0.31 0.34 0.35 0.37 0.38 0.38 0.41
0.15 0.15 0.15 0.17 0.18 0.15 0.12 0.11 0.12 0.13 0.14 0.15 0.16 0.18 0.20 0.20 0.20 0.18 0.17 0.17 0.17 0.18 0.18 0.18 0.19 0.19 0.17 0.16 0.16 0.15 0.16 0.18 0.20 0.23 0.25 0.25 0.29 0.33 0.37 0.37 0.35 0.37 0.38 0.42
0.20 0.19 0.18 0.18 0.19 0.18 0.16 0.14 0.14 0.15 0.16 0.16 0.16 0.19 0.20 0.21 0.20 0.19 0.19 0.20 0.20 0.19 0.16 0.15 0.17 0.16 0.16 0.17 0.19 0.20 0.22 0.24 0.26 0.27 0.28 0.28 0.31 0.35 0.39 0.37 0.36 0.38 0.40 0.42
0.21 0.19 0.18 0.18 0.17 0.17 0.17 0.15 0.14 0.16 0.18 0.18 0.17 0.19 0.20 0.20 0.20 0.20 0.20 0.21 0.20 0.17 0.12 0.13 0.15 0.16 0.17 0.18 0.21 0.22 0.25 0.29 0.33 0.35 0.36 0.35 0.36 0.39 0.41 0.38 0.40 0.42 0.43 0.43
0.17 0.16 0.16 0.16 0.15 0.16 0.16 0.16 0.16 0.17 0.18 0.19 0.19 0.20 0.21 0.19 0.19 0.19 0.21 0.24 0.21 0.18 0.12 0.13 0.12 0.13 0.16 0.21 0.24 0.25 0.27 0.30 0.33 0.36 0.36 0.36 0.38 0.40 0.43 0.42 0.42 0.45 0.46 0.46
0.17 0.15 0.14 0.13 0.13 0.13 0.14 0.14 0.14 0.14 0.16 0.18 0.19 0.19 0.19 0.19 0.18 0.19 0.20 0.22 0.22 0.23 0.18 0.15 0.14 0.16 0.23 0.26 0.21 0.22 0.25 0.28 0.32 0.36 0.39 0.39 0.41 0.43 0.44 0.46 0.47 0.47 0.48 0.51
0.18 0.16 0.15 0.14 0.13 0.12 0.15 0.16 0.13 0.14 0.16 0.16 0.16 0.18 0.20 0.23 0.23 0.23 0.21 0.20 0.21 0.26 0.23 0.20 0.22 0.27 0.34 0.28 0.22 0.22 0.25 0.27 0.29 0.32 0.37 0.43 0.46 0.47 0.49 0.48 0.49 0.50 0.52 0.55
0.19 0.17 0.15 0.14 0.13 0.15 0.18 0.17 0.16 0.15 0.16 0.18 0.17 0.16 0.17 0.21 0.25 0.24 0.24 0.28 0.30 0.30 0.26 0.26 0.31 0.37 0.40 0.32 0.29 0.28 0.29 0.31 0.31 0.31 0.34 0.38 0.43 0.46 0.48 0.50 0.52 0.53 0.52 0.52
0.19 0.18 0.18 0.18 0.21 0.22 0.20 0.19 0.20 0.18 0.19 0.22 0.21 0.18 0.17 0.20 0.25 0.27 0.26 0.27 0.34 0.36 0.32 0.33 0.37 0.41 0.39 0.36 0.36 0.36 0.37 0.39 0.41 0.40 0.39 0.41 0.45 0.49 0.53 0.55 0.58 0.61 0.60 0.57
0.21 0.21 0.23 0.26 0.26 0.25 0.23 0.23 0.22 0.21 0.21 0.23 0.22 0.20 0.20 0.20 0.22 0.23 0.25 0.27 0.30 0.37 0.41 0.40 0.39 0.41 0.41 0.44 0.45 0.44 0.42 0.43 0.43 0.44 0.44 0.47 0.52 0.56 0.62 0.65 0.66 0.69 0.68 0.63
0.23 0.24 0.26 0.25 0.24 0.25 0.26 0.26 0.24 0.22 0.22 0.24 0.24 0.22 0.22 0.24 0.25 0.26 0.27 0.30 0.33 0.36 0.43 0.49 0.49 0.51 0.52 0.51 0.51 0.50 0.50 0.50 0.50 0.51 0.52 0.54 0.57 0.60 0.64 0.69 0.73 0.75 0.76 0.74